TimeAST,TemperatureF,Dew PointF,Humidity,Sea Level PressureIn,VisibilityMPH,Wind Direction,Wind SpeedMPH,Gust SpeedMPH,PrecipitationIn,Events,Conditions,WindDirDegrees,DateUTC
12:00 AM,78.8,71.6,78,29.92,6.2,ENE,5.8,-,N/A,,Mostly Cloudy,70,2012-12-01 04:00:00
1:00 AM,77.0,71.6,83,29.92,6.2,East,9.2,-,N/A,,Scattered Clouds,90,2012-12-01 05:00:00
1:35 AM,75.2,69.8,83,29.92,-9999.0,East,13.8,-,N/A,Rain,Rain Showers,90,2012-12-01 05:35:00
2:00 AM,75,70,80,29.93,7,East,13.8,,,Rain,Light Rain Showers,100,2012-12-01 06:00:00
2:00 AM,75.2,69.8,83,29.92,6.2,East,13.8,-,N/A,Rain,Light Rain Showers,90,2012-12-01 06:00:00
2:16 AM,75.2,69.8,83,29.92,2.8,ENE,10.4,-,N/A,Rain,Rain Showers,70,2012-12-01 06:16:00
2:30 AM,73.4,69.8,88,29.92,1.9,East,12.7,-,N/A,Rain,Rain Showers,90,2012-12-01 06:30:00
3:00 AM,75.2,71.6,89,29.89,6.2,ESE,4.6,-,N/A,,Mostly Cloudy,120,2012-12-01 07:00:00
4:00 AM,75.2,71.6,89,29.89,6.2,East,11.5,-,N/A,Rain,Light Rain Showers,80,2012-12-01 08:00:00
5:00 AM,78,69,68,29.90,25,East,9.2,,,,Mostly Cloudy,100,2012-12-01 09:00:00
5:00 AM,77.0,69.8,78,29.89,6.2,East,9.2,-,N/A,,Mostly Cloudy,100,2012-12-01 09:00:00
6:00 AM,78.8,69.8,74,29.92,6.2,East,9.2,-,N/A,,Mostly Cloudy,90,2012-12-01 10:00:00
7:00 AM,78.8,69.8,74,29.92,6.2,East,6.9,-,N/A,,Scattered Clouds,90,2012-12-01 11:00:00
8:00 AM,81,71,64,29.95,34,East,6.9,,,,Partly Cloudy,100,2012-12-01 12:00:00
8:00 AM,80.6,71.6,74,29.95,6.2,East,8.1,-,N/A,,Partly Cloudy,90,2012-12-01 12:00:00
9:00 AM,82.4,69.8,66,29.95,6.2,ESE,10.4,-,N/A,,Partly Cloudy,110,2012-12-01 13:00:00
10:00 AM,82.4,69.8,66,29.98,6.2,East,8.1,-,N/A,,Partly Cloudy,90,2012-12-01 14:00:00
11:00 AM,83,83,100,,40,ESE,11.5,,,,,110,2012-12-01 15:00:00
11:00 AM,84.2,71.6,66,29.95,6.2,East,10.4,-,N/A,,Partly Cloudy,100,2012-12-01 15:00:00
12:00 PM,82.4,69.8,66,29.95,6.2,ESE,9.2,-,N/A,,Scattered Clouds,120,2012-12-01 16:00:00
1:00 PM,84.2,71.6,66,29.92,6.2,ESE,9.2,-,N/A,,Mostly Cloudy,120,2012-12-01 17:00:00
2:00 PM,83,70,56,29.91,9,SE,12.7,,,,Mostly Cloudy,130,2012-12-01 18:00:00
2:00 PM,82.4,69.8,66,29.89,6.2,SE,12.7,-,N/A,,Mostly Cloudy,130,2012-12-01 18:00:00
3:00 PM,77.0,69.8,78,29.89,6.2,East,17.3,-,N/A,Rain,Light Rain Showers,90,2012-12-01 19:00:00
4:00 PM,80.6,71.6,74,29.89,6.2,ESE,4.6,-,N/A,,Scattered Clouds,120,2012-12-01 20:00:00
5:00 PM,80,69,61,29.90,37,ESE,5.8,,,,Partly Cloudy,110,2012-12-01 21:00:00
5:00 PM,80.6,69.8,70,29.89,6.2,ESE,5.8,-,N/A,,Partly Cloudy,110,2012-12-01 21:00:00
6:00 PM,80.6,69.8,70,29.89,6.2,East,8.1,-,N/A,,Scattered Clouds,90,2012-12-01 22:00:00
7:00 PM,80.6,69.8,70,29.92,6.2,East,8.1,-,N/A,,Scattered Clouds,100,2012-12-01 23:00:00
8:00 PM,80,69,62,29.92,37,East,10.4,,,,Partly Cloudy,100,2012-12-02 00:00:00
8:00 PM,80.6,69.8,70,29.92,6.2,East,10.4,-,N/A,,Scattered Clouds,100,2012-12-02 00:00:00
9:00 PM,80.6,69.8,70,29.92,6.2,East,8.1,-,N/A,,Partly Cloudy,80,2012-12-02 01:00:00
10:00 PM,80.6,69.8,70,29.92,6.2,East,9.2,-,N/A,,Partly Cloudy,90,2012-12-02 02:00:00
11:00 PM,80,70,65,29.92,31,ESE,9.2,,,,Scattered Clouds,110,2012-12-02 03:00:00
11:00 PM,80.6,69.8,70,29.92,6.2,East,10.4,-,N/A,,Partly Cloudy,90,2012-12-02 03:00:00